www.pogodaiklimat.ru

Погода и климат >> Архив погоды >> Россия >> Еврейская автономная область >> Биробиджан


ПОГОДА в Биробиджане

  • Прогноз погоды в Биробиджане
  • Монитор погоды в Биробиджане

АРХИВ ПОГОДЫ в Биробиджане

Время (UTC), дата Ветер
(напр.,м/с)
 
Видим.   Явления Облачность Т
(С)
Тd
(С)
f
(%)
Тe
(С)
Тes
(С)
Комфортность P
(гПа)
Po
(гПа)
Тmin
(С)
Tmax
(С)
R
(мм)
R24
(мм)
S
(см)
12 13.05 ЮВ 2 20 км 4/0
[Ac trans]
+18.9 +6.9 46 +20 +20 1007.4 998.1
15 13.05 Ю 3 20 км 10/0
[Cs]
+16.0 +8.5 61 +16 +16 1008.6 999.2
18 13.05 В 2 20 км 10/0
[Cs]
+12.5 +8.2 75 +12 +12 1009.8 1000.2
21 13.05 штиль 0 20 км 10/8 600 м
[Cb cap As op]
+11.3 +8.6 83 +11 +11 1010.1 1000.5 +11.0
00 14.05 Ю 2 10 км 10/8 600 м
[Cb cap As op]
+13.6 +10.2 80 +13 +13 1011.7 1002.2
03 14.05 В 5 20 км 9/5 600 м
[Cb cap Cc]
+17.1 +10.5 65 +16 +20 1011.4 1002.0
06 14.05 ЮВ 4 20 км 10/4 600 м
[Cb cap As trans]
+17.8 +10.4 62 +18 +19 1010.0 1000.7
09 14.05 ЮВ 3 20 км 9/1 600 м
[Cb cap Ac cuf Ci]
+18.2 +9.2 56 +19 +19 1008.5 999.2 +18.6
12 14.05 В 1 20 км 9/1 1000 м
[Sc diur, vesp Ac lent Ci fib]
+13.8 +9.2 74 +14 +14 1009.5 1000.0
15 14.05 штиль 0 20 км 10/0
[Ac As Cs]
+12.9 +9.3 79 +12 +12 1009.3 999.8
18 14.05 СЗ 1 10 км в посл. час ливневой дождь 9/1 600 м
[Cb cap Ac As Ci fib]
+10.0 +9.1 94 +9 +9 1009.1 999.5
21 14.05 штиль 0 10 км местами туман поземный 9/5 600 м
[Cb cap Ac cast Ci fib]
+9.6 +9.1 97 +9 +9 1009.2 999.5 +7.8 0.3
00 15.05 З 2 10 км слаб. ливневой дождь 9/9 600 м
[Cb cap]
+13.8 +11.0 83 +13 +14 1009.5 1000.0
03 15.05 Ю 3 20 км {ливн. осадки} 4/3 600 м
[Cb cap Cc]
+20.6 +8.7 46 +22 +32 комфорт 1007.3 998.0
06 15.05 Ю 4
{10}
20 км {ливн. осадки} 8/5 600 м
[Cb cap Ac lent Ci fib]
+23.0 +3.4 28 +23 +25 комфорт 1005.5 996.3
09 15.05 ЮЗ 4 20 км 9/5 600 м
[Cb cap Ac lent Ci]
+21.2 +3.8 32 +21 +22 комфорт 1005.1 995.8 +23.2 0.0
12 15.05 В 1 20 км 9/3 600 м
[Cb cap Ac lent Ci fib]
+16.4 +6.0 50 +17 +17 1005.6 996.2
15 15.05 СВ 2 20 км 10/0
[Cs]
+13.0 +7.1 67 +12 +12 1005.2 995.7
18 15.05 С 1 20 км ясно +9.3 +6.9 85 +9 +9 1004.7 995.1
21 15.05 С 1 20 км 10/3 600 м
[Cb cap As op]
+10.9 +7.8 81 +11 +11 1003.8 994.3 +9.1
00 16.05 В 2 20 км 10/0
[Ac lent Cs]
+15.7 +9.1 65 +16 +22 1003.0 993.6
03 16.05 ЮВ 3 20 км 9/5 600 м
[Cb cap Ac trans]
+18.9 +9.1 53 +20 +23 1001.5 992.2
06 16.05 ЮВ 4
{13}
20 км {ливн. осадки} 10/8 600 м
[Cb cap As op]
+15.8 +11.1 74 +15 +15 1001.2 991.8
09 16.05 штиль 0
{20}
20 км {гроза, ливн. осадки} 8/8 600 м
[Cb cap]
+12.4 +8.3 76 +12 +12 1001.5 992.0 +20.9 6
12 16.05 В 2 10 км {гроза, ливн. осадки} 10/0
[Ac trans Cs]
+9.7 +8.3 91 +8 +8 1004.5 994.8
15 16.05 СВ 1 10 км 10/0
[Cs]
+7.7 +7.0 95 +7 +7 1005.7 996.0
18 16.05 З 1 10 км 10/0
[As op]
+7.4 +6.8 96 +6 +6 1005.9 996.2
21 16.05 С 1 10 км 10/5 600 м
[Cb cap As op]
+8.2 +7.5 95 +7 +7 1005.4 995.7 +6.8
00 17.05 С 1 20 км {ливн. осадки} 10/8 600 м
[Cb cap Ac und]
+13.4 +10.7 84 +14 +14 1004.4 994.9
03 17.05 Ю 2 20 км 9/1 600 м
[Cb cap Ac trans Cs]
+20.1 +12.7 62 +23 +31 комфорт 1003.1 993.8
06 17.05 ЮЗ 6-11
{15}
20 км 5/1 600 м
[Cb calv Ac trans Ci fib]
+24.1 +1.3 22 +23 +26 комфорт 1003.8 994.6
09 17.05 Ю 5
{13}
20 км 5/1 600 м
[Cb cap Ac cuf Ci fib]
+22.9 +4.7 31 +23 +24 комфорт 1004.8 995.6 +24.5 0.0
12 17.05 Ю 3 20 км 8/1 600 м
[Cb cap Ac trans Cs]
+15.6 +5.3 50 +15 +15 1005.3 995.9
15 17.05 штиль 0 20 км 8/0
[Ac trans Cc]
+9.5 +5.6 77 +9 +9 1005.4 995.7
18 17.05 СЗ 1 20 км 10/3 600 м
[Cb cap As op]
+9.7 +6.7 82 +9 +9 1006.0 996.3
21 17.05 С 2 10 км гроза, ливневой дождь 10/4 600 м
[Cb cap Ac As]
+9.3 +8.2 93 +7 +8 1005.7 996.1 +7.7 0.8
00 18.05 ЮЗ 1 10 км {гроза, ливн. осадки} 10/3 600 м
[Cb cap Ac und]
+13.0 +10.7 86 +13 +16 1007.5 998.0
03 18.05 ЮЗ 3 20 км ливневой снег 10/10 600 м
[Cb cap]
+12.8 +9.3 79 +11 +11 1008.8 999.3
06 18.05 Ю 3 4000 м слаб. ливневой дождь 10/10 600 м
[Cb cap]
+12.1 +10.7 91 +10 +10 1008.5 998.9
09 18.05 ЮЗ 2 4000 м слаб. ливневой дождь 10/10 600 м
[Cb cap]
+9.5 +8.9 96 +8 +8 1008.0 998.3 +15.5 9
12 18.05 Ю 3 10 км {ливн. осадки} 10/10 600 м
[Cb cap]
+9.0 +8.5 97 +6 +6 1009.6 999.9
15 18.05 Ю 2 10 км 10/3 600 м
[Cb cap Cs]
+9.0 +8.5 97 +7 +7 1010.4 1000.7
18 18.05 ЮЗ 2 10 км 10/0
[As op]
+8.4 +7.7 95 +6 +6 1011.3 1001.5
21 18.05 ЮЗ 3 10 км 10/0
[Ac und Cc]
+9.2 +8.4 95 +7 +7 1011.8 1002.1 +8.0 2
00 19.05 ЮЗ 1 10 км 10/3 600 м
[Cb cap Ac As]
+12.3 +9.3 82 +12 +15 1012.2 1002.6
03 19.05 Ю 1 20 км 10/3 600 м
[Cb cap Ac trans Cs]
+16.7 +9.1 61 +18 +25 1012.0 1002.5
06 19.05 ЮЗ 3 50 км 10/6 600 м
[Cb cap As op]
+16.7 +8.1 57 +17 +17 1010.5 1001.1
09 19.05 ЮВ 1 20 км 10/6 1000 м
[Sc diur, vesp As op]
+15.5 +9.3 67 +16 +16 1008.5 999.0 +17.5
12 19.05 ЮВ 2 20 км в посл. час ливневой дождь 10/5 600 м
[Cb cap As op]
+12.4 +10.2 86 +11 +11 1007.2 997.6
15 19.05 В 1 4000 м ливневой дождь 10/10 600 м
[Cb cap]
+10.6 +9.7 94 +10 +10 1004.1 994.5
18 19.05 СВ 4 2000 м ливневой дождь 10/10 600 м
[Cb cap]
+9.9 +9.3 96 +7 +7 999.4 989.9
21 19.05 СВ 1 2000 м слаб. дождь 10/0 600 м
[As op]
+10.4 +9.9 97 +10 +10 996.3 986.8 +9.8 27
00 20.05 В 5
{10}
2000 м дождь {ливн. осадки} 10/10 300 м
[Frnb Ns]
+11.0 +10.5 97 +8 +8 994.1 984.6
03 20.05 В 4 2000 м слаб. дождь 10/0
[As op]
+12.7 +12.3 97 +11 +13 991.7 982.3
06 20.05 ЮВ 4 2000 м морось {дождь} 10/10 300 м
[St]
+15.0 +14.4 96 +14 +14 989.4 980.1
09 20.05 Ю 1 10 км в посл. час дождь {морось} 10/6 300 м
[St Ac As]
+13.6 +13.0 96 +14 +14 989.0 979.7 +15.6 21

 

Местоположение метеостанции Биробиджан (Еврейская автономная область, Россия): широта 48.73 долгота 132.90 высота над уровнем моря 77 м.

В архиве по умолчанию представлена погода в Биробиджане за последнюю неделю. Архивные данные за месяц целиком и за предыдущие месяцы, начиная с января 2011 года, Вы можете получить, выбрав интересующий диапазон дат из раскрывающегося списка и нажав кнопку "Ввод!".


*Определитесь, кто Вы:
робот инопланетянин человек

Внимание! Время в таблицах - всемирное. Для получения местного времени необходимо прибавить поправку, которая равна 10 ч.

Смотрите также архив погоды в соседних городах и на ближайших метеорологических станциях:

Погода в Смидовиче (Еврейская автономная область, Россия) (68 км)
Погода в Урми (Хабаровский край, Россия) (78 км)
Погода в Ленинское (Еврейская автономная область, Россия) (90 км)
Погода в Хабаровск Центре (Еврейская автономная область, Россия) (91 км)
Погода в Биджане (Еврейская автономная область, Россия) (115 км)
Погода в Облучье (Еврейская автономная область, Россия) (142 км)
Погода в Бычихе (Хабаровский край, Россия) (149 км)
Погода в Верховье Урми (Хабаровский край, Россия) (153 км)
Погода на Хабаровск Мосту (Хабаровский край, Россия) (157 км)
Погода в Хабаровске АМС (Хабаровский край, Россия) (159 км)

Пояснения к столбцам:

Ветер - указаны скорость ветра в м/с - средняя за 10 мин, порывы в срок и между сроками (в фигурных скобках) и направление, откуда дует ветер: С - северный, СВ - северо-восточный, В - восточный, ЮВ - юго-восточный, Ю - южный, ЮЗ - юго-западный, З - западный, СЗ - северо-западный.
Видимость - горизонтальная дальность видимости в метрах или километрах. При видимости от 1 до 10 км при отсутствии осадков обычно наблюдается дымка, при ухудшении видимости до 1 км и менее - туман. В сухую погоду видимость может ухудшаться дымом, пылью или мглою.
Явления - указаны атмосферные явления, наблюдавшиеся в срок или в последний час перед сроком; фигурными скобками обозначены явления, наблюдавшиеся между сроками (за 1-3 часа до срока); квадратными скобками обозначены град или гололедные отложения с указанием их диаметра в мм.
Облачность - указаны через наклонную черту общая и нижняя облачность в баллах и высота нижней границы облаков в метрах; квадратными скобками обозначены формы облаков: Ci - перистые, Cs - перисто-слоистые, Cc - перисто-кучевые, Ac - высококучевые, As - высокослоистые, Sc - слоисто-кучевые, Ns - слоисто-дождевые, Cu - кучевые, Cb - кучево-дождевые. Подробнее классификацию облаков см. в Атласе облаков (PDF).
T - Температура воздуха - температура, измеренная на высоте 2 м над землей.
Td - Температура точки росы - температура, при понижении до которой содержащийся в воздухе водяной пар достигнет насыщения.
f - Относительная влажность воздуха - влажноcть воздуха, измеренная на высоте 2 м над землей.
Te - Эффективная температура - температура, которую ощущает одетый по сезону человек в тени. Характеристика душности погоды. При расчете учитывается влияние влажности воздуха и скорости ветра на теплоощущения человека.
Tes - Эффективная температура на солнце - температура, которую ощущает человек, с поправкой на солнечный нагрев. Характеристика знойности погоды. Зависит от высоты солнца над горизонтом, облачности и скорости ветра. Ночью, в пасмурную погоду, а также при ветре 12 м/с и более поправка равна нулю.
P - Атмосферное давление - приведенное к уровню моря атмосферное давление.
Po - Атмосферное давление - измеренное на уровне метеостанции атмосферное давление.
Tmin - Минимальная температура - минимум температуры воздуха на высоте 2 м над землей.
Tmax - Максимальная температура - максимум температуры воздуха на высоте 2 м над землей.
R - Количество осадков - Количество выпавших осадков за период времени, мм. При наведении курсора мыши на число - период времени, за который выпало указанное количество осадков.
R24 - Количество осадков - Количество выпавших осадков за 24 часа, мм.
S - Снежный покров - Высота снежного покрова, см. При наведении курсора мыши на число - состояние снежного покрова и степень покрытия местности в баллах.